Location: Unspecified
(54.1780°N, 0.0000°E)
Time: 05:54:19
(UTC+00:00)

Transit 2A - Pass Details

Date: 19 June 2019
Orbit: 594 x 965 km, 66.7° (Epoch: 15 July)

Event Time Altitude Azimuth Distance (km) Brightness Sun altitude
Rises 03:51:57 0° 263° (W) 3,651 9.0 2.0°
Reaches altitude 10° 03:54:50 10° 273° (W) 2,696 8.4 2.3°
Maximum altitude 04:00:31 33° 336° (NNW) 1,520 7.8 3.0°
Drops below altitude 10° 04:05:56 10° 40° (NE) 2,568 10.7 3.6°
Sets 04:08:37 0° 50° (NE) 3,455 12.4 3.9°
